sat.trackr.live / text

‹ back to catalog

STARLINK-5595

NORAD 55765 · 2023-028AA

PAYLOAD ACTIVE UNKNOWN

§ Identity

Operator
Country
US
Launch date
2023-03-03
Launch site
AFWTR
Launch vehicle
Mass (kg)
RCS (m²)

Purposes: comms

External: N2YO · Heavens-Above · Gunter

§ Orbital elements

Epoch: 2026-05-25T02:13:39.969408Z

Period
96.11 min
Inclination
69.9999°
Eccentricity
0.0002572
Mean motion
14.98333529 rev/d
Perigee alt
570.3 km
Apogee alt
573.8 km
Semi-major
6,950.2 km
B*
4.0195e-6
RAAN
31.9777°
Arg perigee
267.2410°
Mean anomaly
92.8454°
Rev number
17,797

§ Raw data

STARLINK-55951 55765U 23028AA  26145.09282372 -.00000045  00000+0  40195-5 0  99972 55765  69.9999  31.9777 0002572 267.2410  92.8454 14.98333529177973

JSON: /api/v1/satellites/55765 · /tle

For live sub-satellite position, see the globe view (requires WebGL).

§ Visibility from observer

Set your observer location to see the next 7 days of passes ≥ 10°. The values pass through the URL so the page stays shareable.

No JS? Fill the form by hand. The geolocation button needs JavaScript.